Regional Weather Roundup
Issued by NWS

Home | Current Version | Previous Version | Graphics & Text | Print | Product List | Glossary On
Versions: 1 2 3 4 5 6 7 8 9 10 11 12 13 14 15 16 17 18 19 20 21 22 23 24 25 26 27 28 29 30 31 32 33 34 35 36 37 38 39 40 41 42 43 44 45 46 47 48 49 50
576
ASUS43 KBIS 090002
RWRND

NORTH DAKOTA REGIONAL WEATHER ROUNDUP
NATIONAL WEATHER SERVICE BISMARCK ND
600 PM CST THU DEC 08 2016

NOTE: "FAIR" INDICATES FEW OR NO CLOUDS BELOW 12,000 FEET WITH NO
SIGNIFICANT WEATHER AND/OR OBSTRUCTIONS TO VISIBILITY.


NDZ001>003-009>011-017-090100-
NORTHWEST NORTH DAKOTA

CITY           SKY/WX    TMP DP  RH WIND       PRES   REMARKS
WILLISTON      CLOUDY    -5 -12  72 W9        30.62F WCI -22
6HR MIN TEMP:  -5; 6HR MAX TEMP:  -1;

MINOT          CLOUDY     0  -7  72 W10       30.59S WCI -16
MINOT AFB      CLOUDY    -1  -6  76 W13       30.59S WCI -19
$$

NDZ018>021-031>035-040>046-090100-
SOUTHWEST NORTH DAKOTA

CITY           SKY/WX    TMP DP  RH WIND       PRES   REMARKS
BISMARCK       MOCLDY     2  -4  76 NW10      30.63F WCI -14
6HR MIN TEMP:   2; 6HR MAX TEMP:   6; 6HR PCP: TRACE;

DICKINSON      CLEAR     -8 -12  83 NW9       30.52R WCI -25
GARRISON         N/A     -5 -11  75 NW12      30.59S WCI -23
6HR MIN TEMP:  -5; 6HR MAX TEMP:   2; 6HR PCP:  0.73;

HETTINGER ARPT CLEAR     -5  -9  83 NW7       30.53F WCI -19
$$

NDZ004>008-012>016-024-026-027-054-090100-
NORTHEAST NORTH DAKOTA

CITY           SKY/WX    TMP DP  RH WIND       PRES   REMARKS
GRAND FORKS    FLURRIES  10   5  80 NW13      30.59R WCI  -5
DEVILS LAKE    CLOUDY     0  -5  79 NW15      30.58R WCI -19
$$

NDZ022-023-025-028>030-036>039-047>053-090100-
SOUTHEAST NORTH DAKOTA

CITY           SKY/WX    TMP DP  RH WIND       PRES   REMARKS
FARGO          LGT SNOW  13   6  74 NW14      30.59R WCI  -2
6HR MIN TEMP:  13; 6HR MAX TEMP:  17; 6HR PCP: TRACE;

JAMESTOWN      CLEAR     -1  -7  75 NW17      30.59S WCI -22
$$





USA.gov is the U.S. government's official web portal to all federal, state and local government web resources and services.